Regional Weather Roundup
Issued by NWS

Home | Current Version | Previous Version | Text Only | Print | Product List | Glossary On
Versions: 1 2 3 4 5 6 7 8 9 10 11 12 13 14 15 16 17 18 19 20 21 22 23 24 25 26 27 28 29 30 31 32 33 34 35 36 37 38 39 40 41 42 43 44 45 46 47 48 49 50
000
ASUS43 KMPX 291110
RWRMN
WEATHER ROUNDUP FOR MINNESOTA
NATIONAL WEATHER SERVICE TWIN CITIES/CHANHASSEN MN
600 AM CDT TUE JUL 29 2014


NOTE: "FAIR" INDICATES FEW OR NO CLOUDS BELOW 12,000 FEET WITH NO
SIGNIFICANT WEATHER AND/OR OBSTRUCTIONS TO VISIBILITY. N/A MEANS
CURRENT SKY AND/OR WEATHER CONDITIONS ARE NOT AVAILABLE.

MNZ060>063-068>070-291200-
   Twin Cities Metro

CITY           SKY/WX    TMP DP  RH WIND       PRES   REMARKS
TWIN CITIES    PTCLDY    60  55  83 NW6       30.13R
ST PAUL        CLEAR     59  55  87 NW7       30.12S
CRYSTAL        CLEAR     60  53  77 NW6       30.11F
BLAINE         PTCLDY    61  55  82 NW6       30.12S
LAKEVILLE      CLEAR     57  55  94 W5        30.13S
EDEN PRAIRIE   CLEAR     61  55  81 NW3       30.12S
SOUTH ST PAUL  CLEAR     61  55  80 CALM      30.12S
LAKE ELMO      FAIR      57  55  94 CALM      30.12S
$$
MNZ001>005-007-008-013>017-022>024-027-028-291200-
   Northwest Minnesota

CITY           SKY/WX    TMP DP  RH WIND       PRES   REMARKS
BEMIDJI        CLEAR     52  50  95 NW6       30.15S
HALLOCK        CLEAR     52  50  93 CALM      30.16F
ROSEAU         CLEAR     55  52  88 W7        30.15S
WARROAD        CLEAR     55  52  88 W5        30.14S
THIEF RVR FALL CLEAR     55  54  94 CALM      30.17S
CROOKSTON      CLEAR     52  50  93 CALM      30.18S
FOSSTON        CLEAR     48  46  93 CALM      30.17F
DETROIT LAKES  CLEAR     55  54  94 NW5       30.19S
MOORHEAD       CLEAR     54  54 100 CALM      30.19S
PARK RAPIDS    CLEAR     51  49  92 NW3       30.16S
$$
MNZ006-009>011-018-025>026-291200-
   North Central Minnesota

CITY           SKY/WX    TMP DP  RH WIND       PRES   REMARKS
BAUDETTE       CLEAR     57  55  93 W3        30.13S
FLAG ISLAND    CLEAR     61  55  82 NW12      30.11S
INTL FALLS     CLOUDY    56  55  97 W5        30.09S
WASKISH        CLEAR     61  55  82 NW7       30.13S
BIG FORK       MOCLDY    55  54  94 NW1       30.12F
LONGVILLE      CLEAR     55  55 100 CALM      30.13S
GRAND RAPIDS   CLEAR     55  52  88 CALM      30.13R
CRANE LAKE     CLEAR     50  48  93 CALM      30.09S
ORR            CLEAR     55  52  88 CALM      30.07F
COOK           CLEAR     50  50 100 CALM      30.09F
$$
MNZ012-019>021-037-291200-
   Northeast Minnesota

CITY           SKY/WX    TMP DP  RH WIND       PRES   REMARKS
DULUTH         PTCLDY    56  52  86 NW6       30.08F
ELY            PTCLDY    55  54  94 CALM      30.07S
HIBBING        MOCLDY    48  46  93 CALM      30.10S
EVELETH        CLEAR     55  54  94 W7        30.09F
DULUTH HARBOR  MOCLDY    63  55  77 W7        30.07F
TWO HARBORS    PTCLDY    57  50  77 NW6       30.04S
SILVER BAY     MOCLDY    57  54  88 NW3       30.03S
GRAND MARAIS     N/A     64  52  64 VRB3      29.99R
G MARAIS ARPRT PTCLDY    55  48  76 NW6       30.03S
$$
MNZ029>031-032-039>041-046>048-054>057-064-291200-
   West Central Minnesota

CITY           SKY/WX    TMP DP  RH WIND       PRES   REMARKS
FERGUS FALLS   CLEAR     52  50  93 CALM      30.19S
WHEATON        CLEAR     54  52  94 W3        30.21S
MORRIS         CLEAR     50  48  93 W5        30.18S
ALEXANDRIA     CLEAR     56  53  90 W5        30.19S
ELBOW LAKE     FAIR      53  53  99 CALM      30.18S
WADENA         CLEAR     54  52  94 W3        30.16F
GLENWOOD       CLEAR     54  52  94 W6        30.18S
APPLETON       CLEAR     54  50  87 W3        30.18S
BENSON         CLEAR     52  50  93 CALM      30.18S FOG
ORTONVILLE     CLEAR     55  52  88 NW3       30.19S
MADISON        CLEAR     54  50  87 W5        30.19S
WILLMAR        FAIR      54  52  94 CALM      30.19S
$$
MNZ033>034-036-042>043-049>051-058-059-291200-
   Central Minnesota

CITY           SKY/WX    TMP DP  RH WIND       PRES   REMARKS
ST CLOUD       CLEAR     57  52  83 NW5       30.14S
SAUK CENTRE    FAIR      52  51  97 NW3       30.17S
PAYNESVILLE    CLEAR     49  49 100 SW5       30.17F
AITKIN         CLEAR     52  46  82 CALM      30.12S HAZE
PINE RIVER     CLEAR     54  52  94 CALM      30.17S
BRAINERD       CLEAR     53  52  96 CALM      30.14F
STAPLES        CLEAR     52  52 100 W3        30.16S
LONG PRAIRIE   FAIR      55  52  88 CALM      30.17S
LITTLE FALLS   CLEAR     50  48  93 CALM      30.14F
LITCHFIELD     CLEAR     57  55  94 NW5       30.16S
BUFFALO        CLEAR     59  53  78 W5        30.15S
MAPLE LAKE     CLEAR     59  55  85 NW3       30.15S
$$
MNZ037-044-045-052-053-291200-
   East Central Minnesota

CITY           SKY/WX    TMP DP  RH WIND       PRES   REMARKS
PRINCETON        N/A     57  54  88 CALM      30.13S
MORA           CLEAR     54  52  94 CALM      30.14S
CAMBRIDGE      CLEAR     57  48  72 CALM      30.11S
RUSH CITY      CLOUDY    54  52  94 CALM      30.11S
MOOSE LAKE     CLEAR     54  52  94 CALM      30.09S
HINCKLEY       FAIR      54  54 100 CALM      30.11S
CLOQUET        CLEAR     54  52  94 W6        30.09F
MCGREGOR       CLEAR     54  54 100 CALM      30.13S
$$
MNZ071>073-080-081-089-090-097-098-291200-
   Southwest Minnesota

CITY           SKY/WX    TMP DP  RH WIND       PRES   REMARKS
MONTEVIDEO     CLEAR     54  52  94 NW5       30.19S
GRANITE FALLS  CLEAR     50  49  98 W7        30.20S
CANBY          MOCLDY    54  51  89 W5        30.21S
MARSHALL       CLEAR     52  46  82 W8        30.19S
REDWOOD FALLS  CLEAR     53  52  96 W8        30.17S
OLIVIA         CLEAR     54  52  94 NW3       30.17R
PIPESTONE      CLEAR     54  50  87 CALM      30.21S
WINDOM         CLEAR     52  48  87 CALM      30.19S
WORTHINGTON    CLEAR     52  48  87 NW6       30.21S
JACKSON        PTCLDY    54  50  87 NW5       30.19S
TRACY          CLEAR     56  51  85 W6        30.20S
SLAYTON        CLEAR     52  50  93 CALM      30.21F
$$
MNZ065>067-074>077-082>085-091>093-291200-
   South Central Minnesota

CITY           SKY/WX    TMP DP  RH WIND       PRES   REMARKS
MANKATO        CLEAR     55  50  82 W6        30.15S
NEW ULM        CLEAR     54  54 100 W7        30.16S
ST JAMES       CLEAR     55  52  88 W6        30.18S
FAIRMONT       CLEAR     54  48  82 NW7       30.17S
GLENCOE        CLEAR     58  53  83 NW5       30.14F
FARIBAULT      CLEAR     57  52  82 CALM      30.14S
OWATONNA       CLEAR     54  52  94 W5        30.14S
WASECA         CLEAR     50  46  87 CALM      30.16S FOG
ALBERT LEA     CLEAR     54  54 100 CALM      30.15S
$$
MNZ078>079-086>088-094>096-291200-
   Southeast Minnesota

CITY           SKY/WX    TMP DP  RH WIND       PRES   REMARKS
ROCHESTER      CLEAR     55  52  89 W8        30.14S
RED WING       CLEAR     54  52  94 CALM      30.11R
STANTON        CLEAR     55  52  91 CALM      30.12S
DODGE CENTER   PTCLDY    59  55  88 NW7       30.13S
WINONA         CLEAR     55  54  94 CALM      30.10S
AUSTIN         CLEAR     54  54 100 NW3       30.13S
PRESTON        CLEAR     55  55 100 NW9       30.13R
$$
ABBREVIATIONS USED IN REMARKS
   TC - TEMPERATURES IN CELSIUS
  WCI - WIND CHILL INDEX
   HX - HEAT INDEX
  VSB - VISIBILITY
$$


USA.gov is the U.S. government's official web portal to all federal, state and local government web resources and services.